QPF
0.00 0.00 0.01 0.02 0.01 0.01 0.01 0.01 0.01 0.01 0.02 0.02 0.01 0.02 0.03 0.05 0.06 0.04 0.07 0.04 0.02 0.02 0.03 0.04 0.04 0.05 0.07 0.09 0.08 0.07 0.09 0.12 0.10 0.06 0.06 0.05 0.04 0.03 0.02 0.02 0.02 0.02 0.02 0.02
0.00 0.00 0.00 0.00 0.00 0.00 0.00 0.00 0.00 0.01 0.02 0.02 0.02 0.03 0.05 0.08 0.07 0.04 0.05 0.05 0.03 0.02 0.02 0.03 0.04 0.05 0.08 0.11 0.12 0.10 0.11 0.13 0.13 0.08 0.07 0.05 0.03 0.03 0.02 0.02 0.02 0.02 0.02 0.02
0.00 0.00 0.00 0.00 0.00 0.00 0.00 0.00 0.00 0.01 0.01 0.01 0.03 0.03 0.04 0.07 0.10 0.08 0.06 0.05 0.02 0.02 0.02 0.02 0.03 0.03 0.06 0.06 0.07 0.08 0.10 0.13 0.14 0.12 0.10 0.07 0.05 0.05 0.03 0.03 0.03 0.03 0.02 0.03
0.00 0.00 0.00 0.00 0.00 0.00 0.00 0.00 0.00 0.00 0.00 0.01 0.01 0.01 0.01 0.03 0.03 0.03 0.03 0.04 0.03 0.02 0.02 0.02 0.02 0.03 0.05 0.06 0.06 0.07 0.08 0.09 0.12 0.13 0.14 0.12 0.11 0.10 0.06 0.05 0.04 0.04 0.04 0.03
0.00 0.00 0.00 0.00 0.00 0.00 0.00 0.00 0.01 0.00 0.00 0.01 0.01 0.01 0.02 0.02 0.01 0.02 0.02 0.03 0.03 0.02 0.03 0.03 0.02 0.02 0.02 0.04 0.05 0.05 0.05 0.08 0.08 0.08 0.08 0.10 0.12 0.14 0.09 0.05 0.04 0.04 0.04 0.05
0.00 0.00 0.00 0.01 0.01 0.01 0.01 0.01 0.00 0.01 0.00 0.01 0.01 0.01 0.01 0.01 0.01 0.01 0.01 0.02 0.03 0.04 0.03 0.03 0.02 0.02 0.03 0.03 0.03 0.03 0.03 0.03 0.03 0.05 0.06 0.09 0.13 0.10 0.08 0.06 0.04 0.05 0.06 0.09
0.00 0.00 0.01 0.01 0.01 0.01 0.01 0.01 0.01 0.01 0.01 0.00 0.01 0.01 0.01 0.01 0.01 0.01 0.00 0.01 0.02 0.04 0.04 0.03 0.03 0.04 0.04 0.04 0.03 0.03 0.02 0.02 0.04 0.08 0.11 0.11 0.15 0.12 0.07 0.05 0.05 0.07 0.10 0.09
0.00 0.00 0.01 0.00 0.00 0.01 0.02 0.01 0.01 0.01 0.01 0.01 0.00 0.00 0.01 0.01 0.01 0.01 0.01 0.01 0.02 0.04 0.05 0.04 0.04 0.05 0.05 0.03 0.02 0.03 0.02 0.02 0.07 0.14 0.11 0.10 0.08 0.06 0.05 0.04 0.04 0.06 0.08 0.11
0.01 0.01 0.01 0.00 0.00 0.00 0.00 0.00 0.00 0.01 0.01 0.01 0.01 0.00 0.01 0.01 0.01 0.01 0.01 0.01 0.02 0.03 0.05 0.05 0.05 0.06 0.05 0.03 0.03 0.03 0.03 0.02 0.04 0.06 0.05 0.04 0.04 0.02 0.02 0.03 0.04 0.05 0.07 0.07
0.02 0.02 0.01 0.01 0.01 0.01 0.01 0.01 0.01 0.02 0.01 0.01 0.01 0.01 0.01 0.01 0.01 0.01 0.01 0.02 0.02 0.03 0.03 0.03 0.05 0.07 0.06 0.04 0.03 0.02 0.02 0.02 0.02 0.02 0.02 0.03 0.04 0.04 0.03 0.02 0.02 0.02 0.03 0.05
0.04 0.04 0.03 0.02 0.03 0.04 0.02 0.02 0.03 0.03 0.03 0.02 0.01 0.01 0.01 0.01 0.01 0.01 0.02 0.02 0.03 0.03 0.03 0.03 0.05 0.08 0.07 0.04 0.03 0.02 0.02 0.01 0.01 0.02 0.02 0.03 0.03 0.04 0.03 0.03 0.03 0.02 0.02 0.02
0.05 0.06 0.06 0.06 0.07 0.05 0.04 0.05 0.04 0.02 0.02 0.02 0.03 0.02 0.03 0.01 0.01 0.01 0.02 0.02 0.02 0.03 0.05 0.07 0.07 0.05 0.06 0.04 0.03 0.03 0.02 0.01 0.01 0.02 0.03 0.03 0.03 0.02 0.03 0.03 0.03 0.02 0.02 0.01
0.08 0.09 0.07 0.09 0.11 0.07 0.05 0.10 0.09 0.05 0.03 0.03 0.02 0.03 0.06 0.02 0.01 0.01 0.02 0.03 0.04 0.04 0.07 0.11 0.07 0.06 0.05 0.05 0.03 0.02 0.02 0.01 0.01 0.02 0.02 0.02 0.01 0.01 0.01 0.01 0.02 0.01 0.02 0.02
0.10 0.13 0.12 0.10 0.11 0.07 0.05 0.07 0.08 0.07 0.05 0.04 0.03 0.03 0.04 0.04 0.04 0.03 0.03 0.03 0.04 0.05 0.06 0.06 0.04 0.03 0.03 0.03 0.03 0.02 0.02 0.01 0.01 0.01 0.02 0.02 0.02 0.02 0.02 0.01 0.01 0.01 0.02 0.03
0.15 0.10 0.08 0.08 0.07 0.06 0.05 0.05 0.04 0.04 0.04 0.06 0.06 0.03 0.05 0.06 0.06 0.09 0.08 0.04 0.04 0.05 0.05 0.04 0.03 0.03 0.03 0.04 0.03 0.02 0.01 0.01 0.01 0.02 0.02 0.02 0.03 0.03 0.03 0.03 0.03 0.03 0.03 0.04
0.18 0.11 0.09 0.11 0.09 0.07 0.04 0.03 0.03 0.03 0.03 0.04 0.06 0.05 0.06 0.08 0.08 0.07 0.10 0.06 0.04 0.06 0.08 0.08 0.07 0.05 0.05 0.06 0.05 0.03 0.02 0.02 0.01 0.02 0.02 0.01 0.02 0.03 0.04 0.04 0.05 0.08 0.10 0.09
0.14 0.10 0.12 0.12 0.11 0.09 0.05 0.03 0.03 0.03 0.03 0.03 0.03 0.04 0.07 0.07 0.06 0.06 0.04 0.03 0.03 0.04 0.05 0.06 0.07 0.06 0.05 0.05 0.05 0.04 0.03 0.01 0.01 0.01 0.02 0.02 0.02 0.03 0.04 0.05 0.08 0.08 0.10 0.11
0.10 0.08 0.11 0.12 0.11 0.09 0.06 0.04 0.03 0.03 0.03 0.02 0.02 0.02 0.03 0.06 0.05 0.02 0.02 0.02 0.02 0.03 0.04 0.04 0.04 0.05 0.04 0.04 0.05 0.05 0.05 0.03 0.02 0.02 0.03 0.03 0.03 0.04 0.05 0.05 0.03 0.04 0.09 0.13
0.11 0.12 0.13 0.08 0.06 0.06 0.05 0.03 0.03 0.03 0.03 0.02 0.02 0.02 0.02 0.02 0.02 0.02 0.03 0.03 0.04 0.05 0.05 0.04 0.05 0.06 0.07 0.08 0.08 0.08 0.08 0.07 0.06 0.05 0.05 0.04 0.04 0.04 0.04 0.03 0.02 0.02 0.05 0.09
0.12 0.11 0.10 0.08 0.07 0.06 0.04 0.03 0.03 0.05 0.04 0.03 0.03 0.03 0.03 0.02 0.02 0.02 0.03 0.04 0.04 0.04 0.04 0.05 0.06 0.08 0.10 0.11 0.09 0.08 0.08 0.07 0.07 0.08 0.07 0.05 0.05 0.05 0.05 0.05 0.05 0.05 0.05 0.05
0.07 0.07 0.08 0.08 0.07 0.05 0.03 0.03 0.04 0.05 0.04 0.02 0.01 0.02 0.03 0.02 0.02 0.02 0.02 0.03 0.02 0.02 0.03 0.03 0.05 0.06 0.08 0.08 0.07 0.07 0.07 0.06 0.07 0.08 0.08 0.08 0.09 0.09 0.09 0.08 0.07 0.07 0.06 0.06
0.05 0.06 0.07 0.07 0.06 0.05 0.03 0.02 0.03 0.04 0.03 0.01 0.01 0.02 0.02 0.02 0.02 0.02 0.02 0.03 0.03 0.03 0.02 0.02 0.02 0.02 0.03 0.05 0.05 0.05 0.05 0.06 0.07 0.09 0.11 0.10 0.08 0.07 0.08 0.07 0.07 0.06 0.06 0.05
0.06 0.07 0.06 0.06 0.05 0.05 0.04 0.03 0.03 0.04 0.03 0.02 0.01 0.01 0.02 0.05 0.03 0.03 0.03 0.03 0.03 0.03 0.02 0.02 0.03 0.02 0.03 0.04 0.05 0.05 0.06 0.06 0.07 0.07 0.07 0.07 0.07 0.07 0.07 0.07 0.07 0.07 0.08 0.09
0.05 0.06 0.07 0.06 0.04 0.04 0.04 0.03 0.03 0.04 0.04 0.04 0.03 0.03 0.03 0.05 0.06 0.04 0.03 0.02 0.02 0.02 0.02 0.03 0.04 0.04 0.04 0.04 0.04 0.06 0.07 0.08 0.08 0.07 0.06 0.06 0.05 0.05 0.05 0.05 0.07 0.09 0.10 0.10
0.05 0.05 0.07 0.06 0.05 0.05 0.04 0.03 0.04 0.05 0.05 0.05 0.06 0.05 0.05 0.04 0.04 0.04 0.04 0.04 0.04 0.04 0.04 0.04 0.04 0.06 0.06 0.04 0.04 0.04 0.05 0.05 0.06 0.05 0.04 0.04 0.03 0.03 0.03 0.04 0.06 0.05 0.05 0.05
0.05 0.06 0.05 0.04 0.05 0.04 0.03 0.02 0.03 0.04 0.04 0.04 0.05 0.06 0.06 0.07 0.06 0.05 0.05 0.05 0.05 0.05 0.04 0.03 0.04 0.06 0.05 0.05 0.05 0.04 0.04 0.04 0.03 0.02 0.02 0.02 0.02 0.02 0.03 0.04 0.05 0.06 0.05 0.05
0.06 0.05 0.03 0.02 0.03 0.03 0.03 0.03 0.03 0.05 0.05 0.04 0.03 0.03 0.04 0.05 0.05 0.05 0.05 0.05 0.05 0.04 0.04 0.03 0.03 0.03 0.03 0.04 0.06 0.04 0.03 0.03 0.03 0.02 0.03 0.03 0.02 0.02 0.02 0.02 0.03 0.03 0.03 0.03
MSLP
1008.21 1008.43 1008.76 1009.18 1009.67 1010.16 1010.61 1010.97 1011.21 1011.28 1011.19 1010.95 1010.58 1010.13 1009.65 1009.18 1008.75 1008.40 1008.15 1008.01 1007.98 1008.06 1008.26 1008.56 1008.98 1009.49 1010.09 1010.75 1011.45 1012.15 1012.82 1013.45 1014.01 1014.49 1014.90 1015.26 1015.58 1015.89 1016.19 1016.48 1016.78 1017.05 1017.30 1017.51
1008.36 1008.41 1008.51 1008.66 1008.85 1009.09 1009.35 1009.63 1009.90 1010.14 1010.33 1010.44 1010.46 1010.39 1010.22 1009.97 1009.65 1009.30 1008.95 1008.64 1008.40 1008.28 1008.29 1008.47 1008.80 1009.28 1009.89 1010.59 1011.33 1012.07 1012.77 1013.41 1013.97 1014.47 1014.90 1015.30 1015.68 1016.06 1016.45 1016.84 1017.22 1017.57 1017.87 1018.10
1008.57 1008.46 1008.34 1008.23 1008.16 1008.15 1008.24 1008.43 1008.73 1009.11 1009.53 1009.95 1010.32 1010.58 1010.70 1010.67 1010.48 1010.16 1009.75 1009.31 1008.91 1008.62 1008.48 1008.53 1008.78 1009.22 1009.81 1010.52 1011.26 1012.01 1012.72 1013.35 1013.91 1014.40 1014.85 1015.28 1015.72 1016.17 1016.65 1017.12 1017.59 1018.01 1018.36 1018.62
1008.68 1008.43 1008.13 1007.82 1007.53 1007.33 1007.28 1007.40 1007.71 1008.19 1008.79 1009.46 1010.10 1010.64 1011.02 1011.18 1011.12 1010.86 1010.44 1009.94 1009.45 1009.05 1008.80 1008.76 1008.94 1009.33 1009.89 1010.57 1011.29 1012.02 1012.70 1013.31 1013.85 1014.33 1014.79 1015.24 1015.73 1016.25 1016.80 1017.36 1017.90 1018.39 1018.78 1019.06
1008.54 1008.19 1007.77 1007.31 1006.89 1006.57 1006.43 1006.51 1006.83 1007.38 1008.12 1008.96 1009.80 1010.55 1011.12 1011.46 1011.53 1011.35 1010.98 1010.49 1009.97 1009.53 1009.24 1009.15 1009.28 1009.62 1010.14 1010.77 1011.46 1012.14 1012.77 1013.35 1013.85 1014.32 1014.78 1015.25 1015.77 1016.34 1016.95 1017.57 1018.16 1018.69 1019.12 1019.41
1008.04 1007.62 1007.14 1006.63 1006.16 1005.82 1005.65 1005.73 1006.09 1006.69 1007.51 1008.45 1009.43 1010.32 1011.03 1011.50 1011.70 1011.63 1011.34 1010.92 1010.45 1010.04 1009.75 1009.66 1009.78 1010.09 1010.57 1011.16 1011.79 1012.41 1012.99 1013.51 1013.98 1014.42 1014.87 1015.35 1015.89 1016.48 1017.12 1017.78 1018.41 1018.96 1019.39 1019.69
1007.12 1006.68 1006.21 1005.74 1005.33 1005.03 1004.93 1005.06 1005.46 1006.12 1006.98 1007.98 1009.02 1009.99 1010.79 1011.36 1011.67 1011.72 1011.56 1011.24 1010.88 1010.55 1010.34 1010.28 1010.42 1010.72 1011.17 1011.71 1012.28 1012.83 1013.35 1013.82 1014.24 1014.65 1015.08 1015.56 1016.10 1016.70 1017.35 1018.01 1018.63 1019.18 1019.60 1019.88
1005.84 1005.43 1005.03 1004.67 1004.39 1004.24 1004.26 1004.50 1004.97 1005.68 1006.57 1007.59 1008.64 1009.63 1010.48 1011.12 1011.52 1011.69 1011.66 1011.50 1011.28 1011.08 1010.97 1010.99 1011.16 1011.47 1011.89 1012.38 1012.89 1013.38 1013.83 1014.24 1014.62 1015.00 1015.40 1015.86 1016.38 1016.97 1017.60 1018.23 1018.83 1019.34 1019.73 1019.98
1004.33 1003.97 1003.70 1003.52 1003.44 1003.49 1003.69 1004.07 1004.65 1005.41 1006.32 1007.32 1008.35 1009.33 1010.18 1010.86 1011.34 1011.62 1011.73 1011.72 1011.66 1011.60 1011.61 1011.72 1011.94 1012.26 1012.66 1013.10 1013.54 1013.97 1014.36 1014.71 1015.04 1015.39 1015.76 1016.19 1016.69 1017.24 1017.83 1018.41 1018.96 1019.42 1019.77 1019.98
1002.78 1002.52 1002.41 1002.44 1002.59 1002.87 1003.28 1003.83 1004.52 1005.33 1006.24 1007.22 1008.20 1009.13 1009.97 1010.66 1011.19 1011.57 1011.81 1011.95 1012.04 1012.13 1012.26 1012.45 1012.70 1013.03 1013.40 1013.78 1014.16 1014.51 1014.84 1015.13 1015.42 1015.73 1016.07 1016.47 1016.93 1017.44 1017.97 1018.50 1018.98 1019.39 1019.69 1019.88
1001.40 1001.24 1001.31 1001.56 1001.96 1002.47 1003.09 1003.80 1004.59 1005.46 1006.37 1007.30 1008.23 1009.10 1009.90 1010.58 1011.15 1011.60 1011.95 1012.21 1012.43 1012.64 1012.86 1013.10 1013.38 1013.69 1014.01 1014.33 1014.64 1014.92 1015.17 1015.41 1015.66 1015.93 1016.25 1016.62 1017.04 1017.50 1017.98 1018.45 1018.87 1019.23 1019.49 1019.66
1000.35 1000.32 1000.56 1001.01 1001.62 1002.34 1003.14 1003.98 1004.86 1005.76 1006.66 1007.56 1008.42 1009.24 1009.99 1010.66 1011.24 1011.74 1012.16 1012.52 1012.83 1013.11 1013.39 1013.66 1013.93 1014.19 1014.45 1014.69 1014.91 1015.11 1015.30 1015.49 1015.70 1015.94 1016.23 1016.57 1016.96 1017.38 1017.82 1018.24 1018.62 1018.94 1019.18 1019.34
999.72 999.81 1000.20 1000.81 1001.58 1002.46 1003.39 1004.34 1005.28 1006.20 1007.08 1007.93 1008.74 1009.51 1010.21 1010.86 1011.45 1011.98 1012.45 1012.85 1013.22 1013.54 1013.83 1014.08 1014.31 1014.52 1014.69 1014.84 1014.98 1015.10 1015.22 1015.37 1015.54 1015.76 1016.03 1016.35 1016.72 1017.11 1017.52 1017.91 1018.26 1018.56 1018.80 1018.97
999.51 999.71 1000.21 1000.93 1001.81 1002.78 1003.79 1004.79 1005.76 1006.68 1007.55 1008.37 1009.14 1009.86 1010.53 1011.16 1011.75 1012.29 1012.77 1013.21 1013.58 1013.90 1014.17 1014.39 1014.56 1014.68 1014.77 1014.83 1014.88 1014.92 1014.99 1015.09 1015.24 1015.44 1015.70 1016.01 1016.37 1016.75 1017.13 1017.50 1017.84 1018.13 1018.37 1018.57
999.65 999.93 1000.50 1001.28 1002.21 1003.22 1004.25 1005.27 1006.24 1007.15 1008.00 1008.80 1009.53 1010.23 1010.89 1011.51 1012.09 1012.63 1013.12 1013.55 1013.91 1014.21 1014.44 1014.59 1014.69 1014.73 1014.73 1014.71 1014.69 1014.68 1014.70 1014.77 1014.90 1015.09 1015.34 1015.65 1015.99 1016.36 1016.72 1017.08 1017.40 1017.69 1017.94 1018.16
1000.03 1000.38 1000.97 1001.76 1002.68 1003.68 1004.70 1005.69 1006.65 1007.54 1008.38 1009.16 1009.88 1010.57 1011.22 1011.84 1012.42 1012.96 1013.44 1013.85 1014.20 1014.46 1014.64 1014.74 1014.77 1014.74 1014.67 1014.59 1014.51 1014.46 1014.46 1014.51 1014.62 1014.81 1015.05 1015.35 1015.68 1016.02 1016.36 1016.70 1017.00 1017.28 1017.52 1017.73
1000.55 1000.93 1001.52 1002.28 1003.16 1004.11 1005.08 1006.04 1006.96 1007.83 1008.65 1009.42 1010.15 1010.84 1011.50 1012.12 1012.70 1013.23 1013.71 1014.11 1014.42 1014.65 1014.79 1014.85 1014.84 1014.77 1014.66 1014.55 1014.44 1014.37 1014.35 1014.39 1014.50 1014.67 1014.90 1015.17 1015.47 1015.78 1016.08 1016.37 1016.63 1016.87 1017.08 1017.28
1001.12 1001.52 1002.09 1002.80 1003.62 1004.50 1005.40 1006.31 1007.19 1008.03 1008.84 1009.60 1010.33 1011.03 1011.70 1012.32 1012.91 1013.44 1013.90 1014.29 1014.59 1014.80 1014.92 1014.96 1014.93 1014.85 1014.74 1014.62 1014.52 1014.45 1014.43 1014.46 1014.56 1014.70 1014.90 1015.13 1015.37 1015.62 1015.86 1016.08 1016.28 1016.46 1016.61 1016.76
1001.73 1002.13 1002.66 1003.32 1004.07 1004.87 1005.70 1006.55 1007.38 1008.19 1008.98 1009.73 1010.46 1011.16 1011.83 1012.45 1013.04 1013.56 1014.02 1014.40 1014.70 1014.90 1015.03 1015.08 1015.06 1015.00 1014.91 1014.82 1014.73 1014.68 1014.66 1014.69 1014.76 1014.87 1015.02 1015.18 1015.35 1015.51 1015.66 1015.80 1015.91 1016.00 1016.08 1016.15
1002.37 1002.77 1003.28 1003.88 1004.56 1005.29 1006.05 1006.83 1007.61 1008.38 1009.13 1009.86 1010.57 1011.26 1011.91 1012.53 1013.09 1013.61 1014.06 1014.44 1014.74 1014.96 1015.10 1015.18 1015.21 1015.19 1015.14 1015.08 1015.03 1014.99 1014.98 1014.99 1015.03 1015.09 1015.16 1015.24 1015.32 1015.38 1015.43 1015.47 1015.48 1015.49 1015.48 1015.47
1003.09 1003.49 1003.98 1004.54 1005.15 1005.82 1006.51 1007.22 1007.93 1008.65 1009.35 1010.04 1010.72 1011.36 1011.98 1012.57 1013.11 1013.60 1014.04 1014.41 1014.72 1014.96 1015.14 1015.25 1015.32 1015.35 1015.35 1015.34 1015.31 1015.29 1015.27 1015.26 1015.25 1015.25 1015.24 1015.23 1015.21 1015.17 1015.13 1015.07 1015.00 1014.92 1014.85 1014.77
1003.89 1004.31 1004.79 1005.32 1005.88 1006.48 1007.11 1007.75 1008.39 1009.04 1009.68 1010.31 1010.92 1011.51 1012.07 1012.61 1013.11 1013.57 1013.98 1014.34 1014.65 1014.91 1015.11 1015.27 1015.38 1015.45 1015.49 1015.50 1015.49 1015.47 1015.44 1015.39 1015.33 1015.26 1015.18 1015.08 1014.98 1014.86 1014.73 1014.60 1014.48 1014.35 1014.23 1014.12
1004.78 1005.22 1005.69 1006.20 1006.72 1007.27 1007.83 1008.40 1008.97 1009.53 1010.09 1010.65 1011.18 1011.70 1012.20 1012.67 1013.11 1013.53 1013.91 1014.25 1014.55 1014.81 1015.02 1015.20 1015.33 1015.43 1015.49 1015.51 1015.51 1015.47 1015.41 1015.32 1015.21 1015.08 1014.94 1014.78 1014.62 1014.45 1014.28 1014.12 1013.98 1013.84 1013.72 1013.61
1005.69 1006.16 1006.64 1007.12 1007.62 1008.11 1008.61 1009.11 1009.60 1010.09 1010.57 1011.03 1011.49 1011.92 1012.35 1012.75 1013.14 1013.50 1013.83 1014.14 1014.42 1014.66 1014.87 1015.04 1015.18 1015.27 1015.33 1015.34 1015.32 1015.25 1015.16 1015.04 1014.89 1014.72 1014.54 1014.35 1014.17 1014.00 1013.83 1013.69 1013.57 1013.46 1013.38 1013.31
1006.55 1007.04 1007.53 1008.00 1008.46 1008.92 1009.36 1009.79 1010.22 1010.63 1011.03 1011.42 1011.80 1012.16 1012.51 1012.85 1013.17 1013.48 1013.76 1014.03 1014.27 1014.48 1014.66 1014.80 1014.91 1014.98 1015.01 1015.00 1014.94 1014.85 1014.72 1014.57 1014.41 1014.23 1014.04 1013.87 1013.71 1013.57 1013.45 1013.36 1013.30 1013.27 1013.25 1013.25
1007.29 1007.79 1008.27 1008.72 1009.16 1009.58 1009.97 1010.35 1010.72 1011.07 1011.41 1011.74 1012.05 1012.36 1012.65 1012.93 1013.20 1013.45 1013.69 1013.90 1014.09 1014.26 1014.39 1014.49 1014.56 1014.58 1014.57 1014.52 1014.43 1014.31 1014.17 1014.01 1013.85 1013.69 1013.54 1013.41 1013.31 1013.24 1013.20 1013.20 1013.22 1013.27 1013.33 1013.40
1007.83 1008.33 1008.79 1009.22 1009.63 1010.01 1010.38 1010.72 1011.04 1011.36 1011.65 1011.94 1012.22 1012.48 1012.74 1012.98 1013.20 1013.41 1013.59 1013.75 1013.89 1014.00 1014.08 1014.12 1014.13 1014.10 1014.04 1013.96 1013.85 1013.72 1013.58 1013.44 1013.31 1013.20 1013.11 1013.06 1013.04 1013.06 1013.11 1013.20 1013.31 1013.44 1013.57 1013.69
Thickness
5769 5781 5788 5789 5793 5796 5787 5779 5769 5775 5782 5793 5802 5807 5809 5809 5810 5810 5811 5809 5808 5808 5808 5808 5807 5805 5803 5799 5797 5793 5787 5781 5778 5777 5775 5773 5771 5770 5768 5766 5764 5761 5758 5756
5761 5778 5783 5782 5790 5794 5792 5790 5784 5783 5786 5806 5807 5807 5807 5807 5807 5805 5806 5806 5805 5805 5805 5805 5804 5802 5800 5796 5793 5790 5784 5779 5777 5775 5773 5771 5768 5767 5765 5762 5761 5758 5756 5753
5735 5759 5767 5758 5780 5789 5790 5792 5788 5777 5787 5800 5797 5800 5801 5804 5805 5805 5804 5805 5803 5802 5803 5804 5803 5801 5796 5794 5791 5786 5782 5778 5776 5773 5770 5769 5767 5764 5761 5759 5757 5754 5752 5750
5723 5738 5728 5756 5790 5795 5791 5789 5794 5794 5797 5801 5801 5802 5804 5805 5804 5803 5804 5804 5803 5802 5801 5802 5801 5799 5796 5792 5787 5783 5779 5776 5774 5771 5768 5766 5764 5760 5757 5755 5752 5751 5748 5747
5709 5713 5728 5758 5781 5788 5780 5774 5791 5791 5793 5797 5797 5794 5791 5800 5803 5803 5803 5803 5803 5803 5801 5798 5796 5795 5792 5787 5784 5780 5776 5773 5771 5769 5766 5762 5759 5756 5754 5751 5748 5747 5745 5743
5704 5707 5710 5743 5776 5792 5781 5758 5784 5789 5788 5788 5787 5771 5777 5795 5798 5799 5799 5799 5799 5799 5797 5794 5792 5791 5786 5781 5778 5776 5774 5772 5769 5767 5763 5759 5756 5753 5751 5748 5745 5744 5741 5739
5698 5700 5716 5751 5772 5779 5747 5748 5776 5782 5784 5785 5780 5782 5788 5792 5793 5794 5793 5793 5793 5791 5788 5787 5787 5784 5779 5776 5773 5774 5772 5769 5766 5763 5759 5756 5752 5749 5746 5743 5740 5738 5736 5734
5689 5690 5706 5750 5758 5749 5748 5765 5770 5773 5777 5777 5777 5781 5783 5785 5785 5785 5784 5785 5785 5781 5779 5779 5780 5777 5772 5769 5770 5769 5766 5763 5759 5757 5755 5753 5747 5744 5741 5738 5733 5731 5728 5725
5695 5701 5724 5740 5744 5751 5756 5758 5762 5765 5769 5772 5770 5771 5774 5775 5776 5776 5776 5776 5776 5773 5770 5769 5770 5770 5765 5763 5763 5761 5758 5755 5753 5751 5749 5747 5743 5738 5735 5732 5728 5724 5721 5718
5691 5704 5718 5729 5738 5745 5750 5752 5757 5760 5762 5763 5761 5762 5763 5764 5766 5767 5767 5767 5766 5764 5761 5759 5761 5761 5759 5757 5756 5753 5750 5747 5746 5743 5741 5738 5736 5733 5729 5726 5723 5720 5716 5714
5681 5693 5705 5715 5724 5732 5739 5745 5749 5751 5753 5753 5753 5753 5753 5754 5756 5757 5758 5758 5757 5755 5753 5752 5753 5752 5752 5750 5749 5745 5742 5740 5738 5736 5734 5730 5728 5726 5724 5723 5721 5717 5714 5711
5670 5684 5687 5696 5711 5721 5726 5731 5736 5739 5740 5743 5744 5744 5745 5744 5745 5747 5748 5748 5747 5746 5745 5745 5745 5744 5744 5743 5741 5738 5734 5732 5731 5729 5726 5723 5720 5717 5717 5716 5715 5713 5711 5707
5676 5683 5686 5695 5703 5710 5714 5719 5725 5729 5732 5732 5735 5736 5735 5734 5735 5737 5738 5738 5737 5737 5737 5736 5736 5735 5735 5736 5734 5732 5728 5726 5724 5722 5719 5716 5714 5711 5707 5706 5705 5704 5702 5700
5672 5675 5676 5684 5690 5697 5703 5709 5715 5719 5721 5723 5724 5725 5726 5725 5725 5726 5726 5728 5728 5728 5727 5726 5725 5725 5727 5727 5726 5724 5723 5720 5718 5715 5713 5710 5708 5705 5702 5698 5695 5694 5692 5690
5666 5669 5671 5677 5682 5686 5692 5698 5702 5704 5707 5710 5713 5714 5714 5714 5713 5715 5716 5718 5718 5717 5716 5716 5715 5715 5718 5719 5718 5716 5715 5713 5711 5709 5706 5703 5701 5699 5696 5693 5689 5686 5683 5681
5659 5663 5666 5668 5671 5676 5681 5686 5689 5692 5696 5698 5699 5701 5703 5703 5703 5704 5705 5707 5706 5704 5706 5706 5706 5708 5709 5709 5708 5707 5706 5706 5704 5701 5698 5695 5693 5690 5687 5684 5681 5679 5676 5674
5649 5651 5654 5658 5662 5666 5672 5677 5681 5684 5686 5687 5689 5691 5691 5691 5691 5692 5694 5696 5697 5697 5699 5698 5699 5701 5700 5700 5699 5698 5697 5697 5696 5692 5689 5687 5685 5682 5679 5676 5674 5672 5671 5669
5647 5649 5651 5653 5655 5658 5663 5669 5672 5674 5676 5680 5682 5681 5680 5680 5681 5682 5684 5686 5687 5688 5690 5691 5692 5693 5692 5692 5691 5690 5689 5687 5685 5683 5681 5679 5677 5675 5672 5669 5667 5665 5662 5660
5642 5644 5646 5647 5650 5653 5656 5660 5663 5666 5670 5671 5671 5670 5671 5672 5673 5674 5675 5676 5675 5675 5679 5682 5684 5684 5683 5683 5683 5681 5679 5678 5676 5674 5672 5671 5668 5666 5664 5661 5659 5657 5655 5652
5635 5639 5642 5642 5645 5648 5650 5654 5656 5657 5660 5662 5662 5662 5662 5663 5665 5666 5666 5667 5668 5669 5672 5673 5674 5675 5675 5675 5675 5673 5672 5670 5668 5666 5664 5662 5660 5658 5656 5654 5651 5649 5647 5644
5629 5633 5634 5636 5638 5643 5646 5648 5649 5649 5650 5653 5653 5653 5654 5655 5656 5657 5657 5658 5661 5663 5664 5665 5666 5666 5667 5667 5667 5665 5664 5662 5660 5658 5656 5654 5652 5650 5647 5645 5643 5641 5639 5637
5624 5626 5628 5630 5633 5635 5638 5641 5642 5642 5643 5644 5646 5647 5647 5648 5649 5650 5651 5653 5654 5655 5655 5656 5657 5658 5659 5659 5658 5657 5656 5654 5652 5651 5649 5647 5644 5642 5639 5637 5635 5634 5632 5630
5618 5621 5623 5625 5626 5628 5631 5633 5635 5636 5636 5638 5639 5640 5641 5642 5642 5643 5642 5645 5647 5647 5647 5647 5649 5650 5651 5650 5649 5648 5647 5646 5645 5644 5642 5640 5638 5635 5633 5630 5628 5626 5624 5622
5613 5615 5617 5619 5622 5623 5623 5625 5628 5630 5632 5633 5634 5635 5635 5635 5635 5637 5639 5639 5639 5640 5639 5639 5641 5642 5642 5641 5640 5639 5639 5638 5638 5636 5634 5632 5630 5628 5626 5624 5621 5619 5617 5615
5610 5611 5613 5614 5614 5616 5619 5621 5622 5624 5626 5626 5627 5629 5630 5632 5632 5632 5633 5633 5633 5633 5632 5633 5633 5634 5633 5632 5632 5632 5631 5630 5629 5628 5627 5624 5623 5621 5619 5617 5614 5612 5610 5607
5606 5607 5607 5609 5611 5613 5615 5616 5616 5616 5617 5618 5620 5622 5625 5626 5627 5627 5627 5628 5627 5626 5626 5626 5626 5626 5625 5625 5624 5624 5623 5623 5622 5621 5619 5618 5616 5614 5612 5610 5607 5604 5602 5599
5602 5603 5604 5605 5608 5609 5610 5610 5610 5611 5612 5613 5614 5617 5619 5621 5621 5621 5621 5621 5620 5619 5619 5619 5619 5618 5618 5617 5616 5615 5615 5614 5613 5613 5612 5610 5609 5606 5604 5602 5599 5596 5593 5591